Location: *
(45.9500°N, 9.0833°E)
Time: 17:47:55
(UTC+00:00)

Okean 1 - Pass Details

Date: 03 March 2021
Orbit: 539 x 554 km, 82.5° (Epoch: 15 April)

Event Time Altitude Azimuth Distance (km) Brightness Sun altitude
Rises 17:52:57 0° 354° (N) 2,732 6.9 -7.7°
Reaches altitude 10° 17:55:08 10° 358° (N) 1,836 6.0 -8.1°
Maximum altitude 17:59:08 60° 79° (E) 638 3.3 -8.8°
Drops below altitude 10° 18:03:07 10° 160° (SSE) 1,828 5.8 -9.5°
Sets 18:05:18 0° 164° (SSE) 2,719 6.7 -9.9°
